Форум клана ЧПУшников

Информация о пользователе

Привет, Гость! Войдите или зарегистрируйтесь.


Вы здесь » Форум клана ЧПУшников » Лазерные станки


Лазерные станки

Тем 401 страница 480 из 521

Тема Ответов Просмотров Последнее сообщение
13 384 09-04-2016 20:30:46  aldushin
5 277 06-04-2016 17:28:09  daguss
991 95698 29-03-2016 17:50:18  sva-don
404 Закрыта Резко упала мощность  Neudrums
10 340 24-03-2016 00:59:57  Neudrums
5 439 22-03-2016 20:12:39  Дилик
406 Прошу помощи.  Назар
5 323 16-03-2016 09:51:09  Назар
8 242 14-03-2016 16:51:53  Расулыч
7 444 10-03-2016 20:36:59  chirik
5 761 07-03-2016 20:32:32  Flint2015
19 1734 04-03-2016 17:27:39  Airside
4 207 29-02-2016 22:43:44  nikson
5 177 27-02-2016 08:50:26  Flint2015
413 Тестирование размера реза  Виктор Краски
9 475 26-02-2016 16:55:55  daguss
414 кривая резка  Восходник
17 490 26-02-2016 00:06:30  semerochka
80 6082 22-02-2016 20:51:36  Kinetic
17 974 22-02-2016 12:02:26  Kinetic
5 607 14-02-2016 15:24:59  gabber
7 444 14-02-2016 12:43:54  Zippo
12 380 12-02-2016 17:15:38  Yaroslavl
2 210 12-02-2016 10:23:44  Администратор
22 888 07-02-2016 15:27:40  Imobile
6 323 28-01-2016 17:09:21  StarPOM
25 1008 26-01-2016 15:23:58  Zippo
3 247 07-01-2016 00:45:42  okruk
4 245 05-01-2016 10:25:43  markaru
426 Нужна помощь специалистов!  Мастер на все руки
30 1325 02-01-2016 20:05:38  racon75
7 214 24-12-2015 12:08:34  lexus80
22 2635 21-12-2015 14:22:31  Kuz
14 371 14-12-2015 15:59:50  YuSTas
8 334 12-12-2015 20:20:10  Shamankiller
15 574 12-12-2015 18:02:39  racon75
38 939 08-12-2015 23:46:50  asor
35 902 08-12-2015 18:35:57  dm6
8 363 07-12-2015 21:25:28  Dimon
25 909 04-12-2015 21:36:10  Silmaril
436 Лазерный станок Kamach II 1280 AS  радион рашитович
4 238 04-12-2015 20:36:20  Airside
4 304 04-12-2015 10:56:16  Drakonstar
9 649 29-11-2015 02:45:00  Лазорез
38 807 27-11-2015 18:12:36  ЫХ-000
41 1441 27-11-2015 12:34:06  Slym
44 1874 22-11-2015 11:50:31  _king_
442 mpc6525 - завис  Dr_dober
2 250 16-11-2015 12:54:39  Dr_dober
30 2242 09-11-2015 16:17:15  bort747
1 209 07-11-2015 14:48:03  MobileMan
445 Гравивовка на iPhone  Максим1975
9 601 28-10-2015 12:02:57  Восходник
44 1222 25-10-2015 16:54:39  tok17
3 241 25-10-2015 11:20:20  Фёдор Соколов
12 646 24-10-2015 11:53:29  yri71
21 1887 21-10-2015 23:59:06  dmitrymi
10 793 20-10-2015 16:04:37  YuSTas
2 105 20-10-2015 15:35:36  Kuz
6 246 15-10-2015 09:36:29  Валерия-206
3 197 13-10-2015 11:20:10  Kuz
1 153 06-10-2015 16:34:03  coolmail
29 1082 30-09-2015 12:07:02  olejah
9 407 28-09-2015 04:25:16  BlackOx
457 Расфокусировка  Прокоп
8 315 24-09-2015 20:30:02  Прокоп
14 381 24-09-2015 20:07:38  Lord
6 239 23-09-2015 08:43:57  Airside
3 129 22-09-2015 17:06:12  PalSecam
3 166 22-09-2015 14:56:27  PalSecam
2 174 16-09-2015 22:31:09  Артем-70
35 500 04-09-2015 12:04:29  ecto
5 257 02-09-2015 16:35:06  Halkin
2 398 01-09-2015 22:56:15  Soundlab 77
466 Станок для резки  владимир1070
7 310 27-08-2015 01:47:38  tok17
3 456 05-08-2015 09:46:16  Zeech79
25 794 31-07-2015 11:57:43  Orly
5 395 19-07-2015 11:20:49  Imobile
11 369 15-07-2015 22:09:31  igorzh
5 456 04-07-2015 14:13:00  Fototek
8 2521 25-06-2015 17:57:47  Nokoone
473 Трубка Reci Z8  Zeech79
7 401 25-06-2015 17:53:05  Kuz
1 179 25-06-2015 04:34:38  ThunderLaser_Nolan
2 187 23-06-2015 17:46:06  Halkin
6 215 19-06-2015 13:27:58  Flint2015
8 1056 19-06-2015 10:30:36  shraik
24 1397 15-06-2015 12:51:19  AndreyTK
5 449 02-06-2015 13:45:22  Юрий Ф
4 623 22-05-2015 14:04:43  Neudrums

Вы здесь » Форум клана ЧПУшников » Лазерные станки